{"data":{"norad_id":52859,"intl_designator":"2022-062AF","name":"STARLINK-4196","alt_names":[],"object_type":"PAYLOAD","status":"ACTIVE","operator":null,"country":"US","launch_date":"2022-06-17","launch_site_code":"AFETR","launch_vehicle":null,"mission":null,"orbit_class":"UNKNOWN","rcs_meters":null,"size_class":null,"mass_kg":null,"dimensions":null,"purposes":["comms"],"wikipedia_slug":null,"has_3d_model":false,"image_url":null,"decayed_at":null,"tle_current":{"epoch":"2026-09-20T04:00:25.941024Z","epoch_age_seconds":97649,"freshness":"FRESH","line1":"1 52859U 22062AF  26263.16696691 -.00000007  00000+0  11104-4 0  9992","line2":"2 52859  53.1600 219.2902 0000893  76.9688 283.1414 15.33550171235447","mean_motion":15.33550171,"eccentricity":8.93e-5,"inclination_deg":53.16,"raan_deg":219.2902,"arg_perigee_deg":76.9688,"mean_anomaly_deg":283.1414,"bstar":1.1104e-5,"rev_number":23544,"period_min":93.899764561403,"perigee_km":464.61916476159,"apogee_km":465.84139015735,"semimajor_km":6843.3672774595,"source":"CELESTRAK","updated_at":"2026-09-20T09:00:40.116686Z"}}}